Location: Agadir-Ikarkaouin
(31.1503°N, 9.0246°W)
Time: 04:00:40
(UTC+00:00)

USA 238 DEB - Pass Details

Date: 18 September 2020
Orbit: 1006 x 1206 km, 63.4° (Epoch: 15 October)

Event Time Altitude Azimuth Distance (km) Brightness Sun altitude
Rises 21:25:04 0° 332° (NNW) 3,991 7.4 -35.4°
Reaches altitude 10° 21:27:45 10° 334° (NNW) 3,054 6.6 -35.9°
Enters shadow 21:33:06 52° 348° (NNW) 1,434 4.4 -36.9°
